sat.trackr.live / text

‹ back to catalog

STARLINK-37214

NORAD 68345 · 2026-059AA

PAYLOAD ACTIVE UNKNOWN

§ Identity

Operator
Country
US
Launch date
2026-03-22
Launch site
AFETR
Launch vehicle
Mass (kg)
RCS (m²)

Purposes: comms

External: N2YO · Heavens-Above · Gunter

§ Orbital elements

Epoch: 2026-05-25T04:00:03.998880Z

Period
93.46 min
Inclination
53.1589°
Eccentricity
0.0001032
Mean motion
15.40720072 rev/d
Perigee alt
443.3 km
Apogee alt
444.7 km
Semi-major
6,822.1 km
B*
-5.0937e-2
RAAN
348.5840°
Arg perigee
68.3304°
Mean anomaly
53.9474°
Rev number
592

§ Raw data

STARLINK-372141 68345U 26059AA  26145.16671295 -.01894256  00000+0 -50937-1 0  99942 68345  53.1589 348.5840 0001032  68.3304  53.9474 15.40720072  5927

JSON: /api/v1/satellites/68345 · /tle

For live sub-satellite position, see the globe view (requires WebGL).

§ Visibility from observer

Set your observer location to see the next 7 days of passes ≥ 10°. The values pass through the URL so the page stays shareable.

No JS? Fill the form by hand. The geolocation button needs JavaScript.